Annapolis Naval Academy, MD

5:59 AM EDT on April 26, 2017 (GMT -0400)
Annapolis Naval Academy

Weather History for KNAK - October, 2013

Change the Weather History Date:

Friday, October 25, 2013

  Actual Average (KBWI) Record (KBWI)
Temperature  
Mean Temperature 46 °F -  
Max Temperature 55 °F 63 °F 77 °F (1931)
Min Temperature 37 °F 44 °F 28 °F (1962)
Degree Days  
Heating Degree Days 19    
Moisture  
Dew Point 33 °F    
Average Humidity 61    
Maximum Humidity 79    
Minimum Humidity 42    
Precipitation  
Precipitation 0.00 in - - ()
Sea Level Pressure  
Sea Level Pressure 30.24 in    
Wind  
Wind Speed 7 mph (WNW)    
Max Wind Speed 14 mph    
Max Gust Speed 21 mph    
Visibility 10 miles    
Events      
Averages and records for this station are not official NWS values.
T = Trace of Precipitation, MM = Missing Value Source: NWS Daily Summary

Daily Weather History Graph

Daily Weather History Graph

Search for Another Location

Airport or City:

Trip Planner

Search our weather history database for the weather conditions in past years. The results will help you decide how hot, cold, wet, or windy it might be!

Date:

Astronomy

Oct. 25, 2013 Rise Set
Actual Time 7:25 AM EDT 6:13 PM EDT
Civil Twilight 6:58 AM EDT 6:40 PM EDT
Nautical Twilight 6:27 AM EDT 7:11 PM EDT
Astronomical Twilight 5:56 AM EDT 7:42 PM EDT
Moon 11:31 PM EDT (10/25) 1:04 PM EDT (10/25)
Length of Visible Light 11h 42m
Length of Day
10h 47m
Waning Gibbous, 62% of the Moon is Illuminated
Oct 25
Waning Gibbous
Oct 26
Last Quarter
Nov 3
New
Nov 10
First Quarter
Nov 17
Full

Hourly Weather History & Observations

Time (EDT) Temp. Windchill Dew Point Humidity Pressure Visibility Wind Dir Wind Speed Gust Speed Precip Events Conditions
12:54 AM 42.1 °F 37.1 °F 33.1 °F 70% 30.14 in 10.0 mi WNW 8.1 mph - N/A   Clear
1:54 AM 39.9 °F 36.7 °F 32.0 °F 73% 30.15 in 10.0 mi West 4.6 mph - N/A   Clear
2:54 AM 39.9 °F 36.7 °F 32.0 °F 73% 30.15 in 10.0 mi West 4.6 mph - N/A   Clear
3:54 AM 39.0 °F 35.7 °F 32.0 °F 76% 30.16 in 10.0 mi West 4.6 mph - N/A   Clear
4:54 AM 39.0 °F 34.8 °F 32.0 °F 76% 30.17 in 10.0 mi WNW 5.8 mph - N/A   Clear
5:54 AM 39.0 °F 34.8 °F 32.0 °F 76% 30.19 in 10.0 mi West 5.8 mph - N/A   Clear
6:54 AM 37.9 °F 33.5 °F 32.0 °F 79% 30.21 in 9.0 mi WNW 5.8 mph - N/A   Clear
7:54 AM 39.0 °F 34.0 °F 32.0 °F 76% 30.23 in 10.0 mi WNW 6.9 mph - N/A   Clear
8:54 AM 42.1 °F 37.7 °F 32.0 °F 67% 30.25 in 8.0 mi Variable 6.9 mph - N/A   Clear
9:54 AM 45.0 °F 38.9 °F 33.1 °F 63% 30.26 in 10.0 mi West 12.7 mph 19.6 mph N/A   Mostly Cloudy
10:54 AM 48.9 °F - 35.1 °F 59% 30.25 in 10.0 mi NW 10.4 mph - N/A   Clear
11:54 AM 51.1 °F - 34.0 °F 52% 30.25 in 10.0 mi NW 11.5 mph 16.1 mph N/A   Clear
12:54 PM 52.0 °F - 35.1 °F 53% 30.25 in 10.0 mi NW 11.5 mph - N/A   Clear
1:54 PM 53.1 °F - 35.1 °F 50% 30.24 in 10.0 mi WNW 11.5 mph 17.3 mph N/A   Clear
2:54 PM 54.0 °F - 34.0 °F 47% 30.23 in 10.0 mi NW 13.8 mph 20.7 mph N/A   Partly Cloudy
3:54 PM 55.0 °F - 33.1 °F 43% 30.24 in 10.0 mi WNW 9.2 mph 19.6 mph N/A   Mostly Cloudy
4:54 PM 55.0 °F - 32.0 °F 42% 30.24 in 10.0 mi WNW 10.4 mph - N/A   Mostly Cloudy
5:54 PM 53.1 °F - 30.9 °F 43% 30.26 in 10.0 mi WNW 6.9 mph - N/A   Clear
6:54 PM 50.0 °F - 30.9 °F 48% 30.28 in 10.0 mi West 5.8 mph - N/A   Clear
7:54 PM 48.9 °F - 33.1 °F 54% 30.29 in 10.0 mi WNW 6.9 mph - N/A   Clear
8:54 PM 46.9 °F - 30.9 °F 54% 30.30 in 10.0 mi West 5.8 mph - N/A   Clear
9:54 PM 46.0 °F 43.1 °F 32.0 °F 58% 30.32 in 10.0 mi WNW 5.8 mph - N/A   Clear
10:54 PM 44.1 °F 41.5 °F 33.1 °F 65% 30.33 in 10.0 mi Variable 4.6 mph - N/A   Clear
11:54 PM 42.1 °F 39.2 °F 30.9 °F 65% 30.31 in 10.0 mi West 4.6 mph - N/A   Clear